Time,TemperatureF,DewpointF,PressureIn,WindDirection,WindDirectionDegrees,WindSpeedMPH,WindSpeedGustMPH,Humidity,HourlyPrecipIn,Conditions,Clouds,dailyrainin,SoftwareType,DateUTC
2013-10-15 00:01:00,58.5,53.0,29.74,West,270,0.0,0.0,82,0.00,,,0.00,VWS V14.01,2013-10-15 04:01:00,
2013-10-15 00:02:00,58.5,53.0,29.74,West,270,0.0,0.0,82,0.00,,,0.00,VWS V14.01,2013-10-15 04:02:00,
2013-10-15 00:07:00,58.5,53.0,29.74,West,270,0.0,0.0,82,0.00,,,0.00,VWS V14.01,2013-10-15 04:07:00,
2013-10-15 00:12:00,58.3,52.8,29.71,SW,225,1.6,1.6,82,0.00,,,0.00,VWS V14.01,2013-10-15 04:12:00,
2013-10-15 00:17:00,58.3,52.8,29.71,SW,225,1.3,1.3,82,0.00,,,0.00,VWS V14.01,2013-10-15 04:17:00,
2013-10-15 00:22:00,57.7,52.3,29.71,SW,225,2.5,2.5,82,0.00,,,0.00,VWS V14.01,2013-10-15 04:22:00,
2013-10-15 00:27:00,57.6,52.1,29.74,SSW,202,2.2,2.2,82,0.00,,,0.00,VWS V14.01,2013-10-15 04:27:00,
2013-10-15 00:33:00,57.6,52.4,29.74,SW,225,2.0,2.0,83,0.00,,,0.00,VWS V14.01,2013-10-15 04:33:00,
2013-10-15 00:38:00,57.4,52.3,29.74,WSW,248,1.6,1.6,83,0.00,,,0.00,VWS V14.01,2013-10-15 04:38:00,
2013-10-15 00:43:00,57.4,52.3,29.74,WSW,248,2.5,2.5,83,0.00,,,0.00,VWS V14.01,2013-10-15 04:43:00,
2013-10-15 00:48:00,57.4,52.6,29.74,SSW,202,0.9,0.9,84,0.00,,,0.00,VWS V14.01,2013-10-15 04:48:00,
2013-10-15 00:53:00,57.4,52.3,29.74,SSW,202,1.3,1.3,83,0.00,,,0.00,VWS V14.01,2013-10-15 04:53:00,
2013-10-15 00:58:00,57.2,52.1,29.74,SSW,202,1.6,1.6,83,0.00,,,0.00,VWS V14.01,2013-10-15 04:58:00,
2013-10-15 01:03:00,57.2,52.4,29.74,ESE,112,0.0,0.0,84,0.00,,,0.00,VWS V14.01,2013-10-15 05:03:00,
2013-10-15 01:08:00,57.2,52.4,29.74,East,90,0.0,0.0,84,0.00,,,0.00,VWS V14.01,2013-10-15 05:08:00,
2013-10-15 01:13:00,57.0,52.2,29.74,East,90,0.0,0.0,84,0.00,,,0.00,VWS V14.01,2013-10-15 05:13:00,
2013-10-15 01:18:00,56.8,52.1,29.74,East,90,0.0,0.0,84,0.00,,,0.00,VWS V14.01,2013-10-15 05:18:00,
2013-10-15 01:23:00,56.8,52.1,29.74,NNE,22,0.0,0.0,84,0.00,,,0.00,VWS V14.01,2013-10-15 05:23:00,
2013-10-15 01:28:00,56.7,51.9,29.74,ENE,68,0.0,0.0,84,0.00,,,0.00,VWS V14.01,2013-10-15 05:28:00,
2013-10-15 01:33:00,56.5,51.7,29.74,East,90,1.6,1.6,84,0.00,,,0.00,VWS V14.01,2013-10-15 05:33:00,
2013-10-15 01:38:00,56.3,51.5,29.74,NE,45,0.0,0.0,84,0.00,,,0.00,VWS V14.01,2013-10-15 05:38:00,
2013-10-15 01:43:00,56.3,51.5,29.74,NE,45,0.0,0.0,84,0.00,,,0.00,VWS V14.01,2013-10-15 05:43:00,
2013-10-15 01:48:00,56.3,51.5,29.74,ESE,112,0.0,0.0,84,0.00,,,0.00,VWS V14.01,2013-10-15 05:48:00,
2013-10-15 01:53:00,56.1,51.4,29.74,East,90,0.0,0.0,84,0.00,,,0.00,VWS V14.01,2013-10-15 05:53:00,
2013-10-15 01:58:00,56.1,51.4,29.74,East,90,0.0,0.0,84,0.00,,,0.00,VWS V14.01,2013-10-15 05:58:00,
2013-10-15 02:03:00,55.9,51.5,29.74,SE,135,0.0,0.0,85,0.00,,,0.00,VWS V14.01,2013-10-15 06:03:00,
2013-10-15 02:08:00,55.9,51.5,29.74,ENE,68,0.0,0.0,85,0.00,,,0.00,VWS V14.01,2013-10-15 06:08:00,
2013-10-15 02:13:00,55.9,51.5,29.71,ENE,68,0.0,0.0,85,0.00,,,0.00,VWS V14.01,2013-10-15 06:13:00,
2013-10-15 02:18:00,55.9,51.5,29.71,East,90,0.0,0.0,85,0.00,,,0.00,VWS V14.01,2013-10-15 06:18:00,
2013-10-15 02:23:00,55.9,51.5,29.71,East,90,0.0,0.0,85,0.00,,,0.00,VWS V14.01,2013-10-15 06:23:00,
2013-10-15 02:28:00,55.9,51.5,29.71,East,90,0.0,0.0,85,0.00,,,0.00,VWS V14.01,2013-10-15 06:28:00,
2013-10-15 02:33:00,55.9,51.5,29.71,NE,45,0.0,0.0,85,0.00,,,0.00,VWS V14.01,2013-10-15 06:33:00,
2013-10-15 02:38:00,55.9,51.8,29.71,NE,45,0.0,0.0,86,0.00,,,0.00,VWS V14.01,2013-10-15 06:38:00,
2013-10-15 02:43:00,55.9,51.8,29.74,NE,45,0.0,0.0,86,0.00,,,0.00,VWS V14.01,2013-10-15 06:43:00,
2013-10-15 02:48:00,55.9,51.8,29.74,NE,45,0.0,0.0,86,0.00,,,0.00,VWS V14.01,2013-10-15 06:48:00,
2013-10-15 02:53:00,55.9,51.8,29.74,NE,45,0.0,0.0,86,0.00,,,0.00,VWS V14.01,2013-10-15 06:53:00,
2013-10-15 02:58:00,55.9,51.8,29.71,NE,45,0.0,0.0,86,0.00,,,0.00,VWS V14.01,2013-10-15 06:58:00,
2013-10-15 03:03:00,55.8,51.3,29.71,NE,45,0.0,0.0,85,0.00,,,0.00,VWS V14.01,2013-10-15 07:03:00,
2013-10-15 03:08:00,55.6,51.2,29.71,NE,45,0.0,0.0,85,0.00,,,0.00,VWS V14.01,2013-10-15 07:08:00,
2013-10-15 03:13:00,55.4,51.0,29.71,East,90,0.0,0.0,85,0.00,,,0.00,VWS V14.01,2013-10-15 07:13:00,
2013-10-15 03:18:00,55.2,50.8,29.71,NE,45,0.0,0.0,85,0.00,,,0.00,VWS V14.01,2013-10-15 07:18:00,
2013-10-15 03:23:00,55.0,50.6,29.71,NE,45,0.0,0.0,85,0.00,,,0.00,VWS V14.01,2013-10-15 07:23:00,
2013-10-15 03:28:00,54.9,50.4,29.71,NE,45,0.0,0.0,85,0.00,,,0.00,VWS V14.01,2013-10-15 07:28:00,
2013-10-15 03:33:00,54.9,50.4,29.71,NE,45,0.0,0.0,85,0.00,,,0.00,VWS V14.01,2013-10-15 07:33:00,
2013-10-15 03:38:00,54.7,50.3,29.71,NE,45,0.0,0.0,85,0.00,,,0.00,VWS V14.01,2013-10-15 07:38:00,
2013-10-15 03:43:00,54.7,50.6,29.71,NE,45,0.0,0.0,86,0.00,,,0.00,VWS V14.01,2013-10-15 07:43:00,
2013-10-15 03:48:00,54.7,50.3,29.71,ENE,68,0.0,0.0,85,0.00,,,0.00,VWS V14.01,2013-10-15 07:48:00,
2013-10-15 03:53:00,54.7,50.6,29.71,ENE,68,0.0,0.0,86,0.00,,,0.00,VWS V14.01,2013-10-15 07:53:00,
2013-10-15 03:58:00,54.7,50.9,29.71,ENE,68,0.0,0.0,87,0.00,,,0.00,VWS V14.01,2013-10-15 07:58:00,
2013-10-15 04:03:00,54.5,50.4,29.71,ENE,68,0.0,0.0,86,0.00,,,0.00,VWS V14.01,2013-10-15 08:03:00,
2013-10-15 04:08:00,54.5,50.4,29.71,ENE,68,0.0,0.0,86,0.00,,,0.00,VWS V14.01,2013-10-15 08:08:00,
2013-10-15 04:13:00,54.5,50.7,29.71,ENE,68,0.0,0.0,87,0.00,,,0.00,VWS V14.01,2013-10-15 08:13:00,
2013-10-15 04:18:00,54.5,50.7,29.71,ENE,68,0.0,0.0,87,0.00,,,0.00,VWS V14.01,2013-10-15 08:18:00,
2013-10-15 04:23:00,54.3,50.2,29.71,ENE,68,0.0,0.0,86,0.00,,,0.00,VWS V14.01,2013-10-15 08:23:00,
2013-10-15 04:29:00,54.3,50.2,29.71,ENE,68,0.0,0.0,86,0.00,,,0.00,VWS V14.01,2013-10-15 08:29:00,
2013-10-15 04:33:00,54.1,50.0,29.71,NNE,22,0.0,0.0,86,0.00,,,0.00,VWS V14.01,2013-10-15 08:33:00,
2013-10-15 04:39:00,54.1,50.0,29.71,NE,45,0.0,0.0,86,0.00,,,0.00,VWS V14.01,2013-10-15 08:39:00,
2013-10-15 04:43:00,54.1,50.4,29.71,NE,45,0.0,0.0,87,0.00,,,0.00,VWS V14.01,2013-10-15 08:43:00,
2013-10-15 04:49:00,54.1,50.4,29.71,NE,45,0.0,0.0,87,0.00,,,0.00,VWS V14.01,2013-10-15 08:49:00,
2013-10-15 04:50:00,54.0,50.2,29.71,NE,45,0.0,0.0,87,0.00,,,0.00,VWS V14.01,2013-10-15 08:50:00,
2013-10-15 04:55:00,53.8,49.4,29.71,NE,45,0.0,0.0,85,0.00,,,0.00,VWS V14.01,2013-10-15 08:55:00,
2013-10-15 05:00:00,53.6,49.2,29.71,NE,45,0.0,0.0,85,0.00,,,0.00,VWS V14.01,2013-10-15 09:00:00,
2013-10-15 05:05:00,53.6,49.5,29.71,NE,45,0.0,0.0,86,0.00,,,0.00,VWS V14.01,2013-10-15 09:05:00,
2013-10-15 05:10:00,53.8,50.0,29.71,NNE,22,0.0,0.0,87,0.00,,,0.00,VWS V14.01,2013-10-15 09:10:00,
2013-10-15 05:15:00,54.0,50.5,29.71,NNE,22,0.0,0.0,88,0.00,,,0.00,VWS V14.01,2013-10-15 09:15:00,
2013-10-15 05:20:00,54.0,50.5,29.71,North,0,0.0,0.0,88,0.00,,,0.00,VWS V14.01,2013-10-15 09:20:00,
2013-10-15 05:25:00,54.0,50.8,29.71,NNE,22,2.2,2.2,89,0.00,,,0.00,VWS V14.01,2013-10-15 09:25:00,
2013-10-15 05:30:00,54.0,50.8,29.71,NNE,22,2.5,2.5,89,0.00,,,0.00,VWS V14.01,2013-10-15 09:30:00,
2013-10-15 05:35:00,54.0,50.8,29.71,NNE,22,2.0,2.0,89,0.00,,,0.00,VWS V14.01,2013-10-15 09:35:00,
2013-10-15 05:40:00,54.0,50.8,29.71,NNE,22,0.0,0.0,89,0.00,,,0.00,VWS V14.01,2013-10-15 09:40:00,
2013-10-15 05:45:00,54.0,50.8,29.71,NNE,22,0.0,0.0,89,0.00,,,0.00,VWS V14.01,2013-10-15 09:45:00,
2013-10-15 05:50:00,53.8,50.6,29.71,NNE,22,0.0,0.0,89,0.00,,,0.00,VWS V14.01,2013-10-15 09:50:00,
2013-10-15 05:55:00,53.8,50.6,29.71,NNE,22,0.0,0.0,89,0.00,,,0.00,VWS V14.01,2013-10-15 09:55:00,
2013-10-15 06:00:00,53.8,50.6,29.71,NNE,22,0.0,0.0,89,0.00,,,0.00,VWS V14.01,2013-10-15 10:00:00,
2013-10-15 06:05:00,53.2,49.5,29.71,North,0,0.0,0.0,87,0.00,,,0.00,VWS V14.01,2013-10-15 10:05:00,
2013-10-15 06:10:00,52.9,48.5,29.71,North,0,0.0,0.0,85,0.00,,,0.00,VWS V14.01,2013-10-15 10:10:00,
2013-10-15 06:15:00,52.5,48.2,29.71,North,0,0.0,0.0,85,0.00,,,0.00,VWS V14.01,2013-10-15 10:15:00,
2013-10-15 06:20:00,52.5,48.5,29.71,NNW,338,0.0,0.0,86,0.00,,,0.00,VWS V14.01,2013-10-15 10:20:00,
2013-10-15 06:25:00,52.5,49.1,29.71,NNW,338,0.0,0.0,88,0.00,,,0.00,VWS V14.01,2013-10-15 10:25:00,
2013-10-15 06:30:00,52.3,48.6,29.71,NNW,338,0.0,0.0,87,0.00,,,0.00,VWS V14.01,2013-10-15 10:30:00,
2013-10-15 06:35:00,52.0,47.9,29.71,NNW,338,0.0,0.0,86,0.00,,,0.00,VWS V14.01,2013-10-15 10:35:00,
2013-10-15 06:40:00,51.8,47.8,29.71,NNW,338,0.0,0.0,86,0.00,,,0.00,VWS V14.01,2013-10-15 10:40:00,
2013-10-15 06:45:00,51.8,48.4,29.71,NNW,338,0.0,0.0,88,0.00,,,0.00,VWS V14.01,2013-10-15 10:45:00,
2013-10-15 06:51:00,51.8,48.4,29.71,NNW,338,0.0,0.0,88,0.00,,,0.00,VWS V14.01,2013-10-15 10:51:00,
2013-10-15 06:56:00,51.8,48.7,29.71,NNW,338,1.6,1.6,89,0.00,,,0.00,VWS V14.01,2013-10-15 10:56:00,
2013-10-15 07:01:00,52.0,49.1,29.71,NNW,338,2.0,2.0,90,0.00,,,0.00,VWS V14.01,2013-10-15 11:01:00,
2013-10-15 07:06:00,52.2,49.6,29.71,NNW,338,0.0,0.0,91,0.00,,,0.00,VWS V14.01,2013-10-15 11:06:00,
2013-10-15 07:11:00,52.3,50.1,29.71,North,0,0.0,0.0,92,0.00,,,0.00,VWS V14.01,2013-10-15 11:11:00,
2013-10-15 07:16:00,52.0,49.1,29.74,North,0,0.0,0.0,90,0.00,,,0.00,VWS V14.01,2013-10-15 11:16:00,
2013-10-15 07:21:00,51.8,48.7,29.74,North,0,0.0,0.0,89,0.00,,,0.00,VWS V14.01,2013-10-15 11:21:00,
2013-10-15 07:26:00,51.6,48.5,29.74,North,0,0.0,0.0,89,0.00,,,0.00,VWS V14.01,2013-10-15 11:26:00,
2013-10-15 07:31:00,51.6,48.2,29.74,North,0,0.0,0.0,88,0.00,,,0.00,VWS V14.01,2013-10-15 11:31:00,
2013-10-15 07:36:00,51.6,48.2,29.74,NNE,22,0.0,0.0,88,0.00,,,0.00,VWS V14.01,2013-10-15 11:36:00,
2013-10-15 07:41:00,51.6,48.5,29.74,NNE,22,0.0,0.0,89,0.00,,,0.00,VWS V14.01,2013-10-15 11:41:00,
2013-10-15 07:46:00,51.6,48.5,29.74,NNE,22,0.0,0.0,89,0.00,,,0.00,VWS V14.01,2013-10-15 11:46:00,
2013-10-15 07:52:00,51.6,48.8,29.74,NNE,22,0.0,0.0,90,0.00,,,0.00,VWS V14.01,2013-10-15 11:52:00,
2013-10-15 07:57:00,51.8,49.0,29.74,NNE,22,0.0,0.0,90,0.00,,,0.00,VWS V14.01,2013-10-15 11:57:00,
2013-10-15 08:02:00,51.8,49.0,29.74,NNE,22,0.0,0.0,90,0.00,,,0.00,VWS V14.01,2013-10-15 12:02:00,
2013-10-15 08:07:00,51.8,49.3,29.74,NNE,22,0.0,0.0,91,0.00,,,0.00,VWS V14.01,2013-10-15 12:07:00,
2013-10-15 08:12:00,52.0,49.4,29.74,NNE,22,0.0,0.0,91,0.00,,,0.00,VWS V14.01,2013-10-15 12:12:00,
2013-10-15 08:17:00,52.2,49.9,29.74,NNE,22,0.0,0.0,92,0.00,,,0.00,VWS V14.01,2013-10-15 12:17:00,
2013-10-15 08:22:00,52.3,50.1,29.74,NNE,22,0.0,0.0,92,0.00,,,0.00,VWS V14.01,2013-10-15 12:22:00,
2013-10-15 08:27:00,52.5,50.3,29.76,North,0,0.0,0.0,92,0.00,,,0.00,VWS V14.01,2013-10-15 12:27:00,
2013-10-15 08:32:00,52.5,50.6,29.76,North,0,0.9,0.9,93,0.00,,,0.00,VWS V14.01,2013-10-15 12:32:00,
2013-10-15 08:37:00,52.9,50.9,29.76,North,0,1.1,1.1,93,0.00,,,0.00,VWS V14.01,2013-10-15 12:37:00,
2013-10-15 08:42:00,52.9,50.9,29.74,NNE,22,0.0,0.0,93,0.00,,,0.00,VWS V14.01,2013-10-15 12:42:00,
2013-10-15 08:47:00,53.2,51.6,29.74,NNE,22,2.0,2.0,94,0.00,,,0.00,VWS V14.01,2013-10-15 12:47:00,
2013-10-15 08:53:00,53.4,51.7,29.74,NNE,22,3.1,3.1,94,0.00,,,0.00,VWS V14.01,2013-10-15 12:53:00,
2013-10-15 08:58:00,53.8,51.8,29.74,NNE,22,3.8,3.8,93,0.00,,,0.00,VWS V14.01,2013-10-15 12:58:00,
2013-10-15 09:03:00,54.0,52.0,29.74,NE,45,2.2,2.2,93,0.00,,,0.00,VWS V14.01,2013-10-15 13:03:00,
2013-10-15 09:08:00,54.1,52.2,29.74,NE,45,2.5,2.5,93,0.00,,,0.00,VWS V14.01,2013-10-15 13:08:00,
2013-10-15 09:13:00,54.1,52.2,29.74,NE,45,0.9,0.9,93,0.00,,,0.00,VWS V14.01,2013-10-15 13:13:00,
2013-10-15 09:18:00,54.5,52.8,29.74,ENE,68,1.6,1.6,94,0.00,,,0.00,VWS V14.01,2013-10-15 13:18:00,
2013-10-15 09:23:00,54.9,53.2,29.74,NE,45,4.3,4.3,94,0.00,,,0.00,VWS V14.01,2013-10-15 13:23:00,
2013-10-15 09:28:00,55.2,53.5,29.74,NE,45,4.9,4.9,94,0.00,,,0.00,VWS V14.01,2013-10-15 13:28:00,
2013-10-15 09:33:00,55.4,53.7,29.74,NE,45,3.1,3.1,94,0.00,,,0.00,VWS V14.01,2013-10-15 13:33:00,
2013-10-15 09:38:00,55.8,54.1,29.74,NE,45,4.0,4.0,94,0.00,,,0.00,VWS V14.01,2013-10-15 13:38:00,
2013-10-15 09:43:00,55.9,54.2,29.74,ENE,68,1.6,1.6,94,0.00,,,0.00,VWS V14.01,2013-10-15 13:43:00,
2013-10-15 09:48:00,56.1,54.4,29.74,NNE,22,3.8,3.8,94,0.00,,,0.00,VWS V14.01,2013-10-15 13:48:00,
2013-10-15 09:53:00,56.3,54.6,29.74,NNE,22,3.4,3.4,94,0.00,,,0.00,VWS V14.01,2013-10-15 13:53:00,
2013-10-15 09:58:00,56.5,54.8,29.74,NNW,338,2.7,2.7,94,0.00,,,0.00,VWS V14.01,2013-10-15 13:58:00,
2013-10-15 10:03:00,56.7,55.0,29.74,NNE,22,2.5,2.5,94,0.00,,,0.00,VWS V14.01,2013-10-15 14:03:00,
2013-10-15 10:08:00,56.8,55.1,29.74,NE,45,2.0,2.0,94,0.00,,,0.00,VWS V14.01,2013-10-15 14:08:00,
2013-10-15 10:13:00,57.2,55.2,29.74,North,0,3.4,3.4,93,0.00,,,0.00,VWS V14.01,2013-10-15 14:13:00,
2013-10-15 10:19:00,57.4,55.4,29.74,NE,45,2.0,2.0,93,0.00,,,0.00,VWS V14.01,2013-10-15 14:19:00,
2013-10-15 10:24:00,57.6,55.6,29.74,NNE,22,3.4,3.4,93,0.00,,,0.00,VWS V14.01,2013-10-15 14:24:00,
2013-10-15 10:29:00,57.7,55.7,29.74,NNW,338,2.0,2.0,93,0.00,,,0.00,VWS V14.01,2013-10-15 14:29:00,
2013-10-15 10:34:00,57.9,55.9,29.74,NE,45,0.0,0.0,93,0.00,,,0.00,VWS V14.01,2013-10-15 14:34:00,
2013-10-15 10:39:00,57.9,55.9,29.74,NNW,338,2.9,2.9,93,0.00,,,0.00,VWS V14.01,2013-10-15 14:39:00,
2013-10-15 10:44:00,58.1,55.8,29.74,North,0,2.9,2.9,92,0.00,,,0.00,VWS V14.01,2013-10-15 14:44:00,
2013-10-15 10:49:00,58.5,56.2,29.74,North,0,4.5,4.5,92,0.00,,,0.00,VWS V14.01,2013-10-15 14:49:00,
2013-10-15 10:54:00,58.6,56.3,29.74,NNE,22,3.6,3.6,92,0.00,,,0.00,VWS V14.01,2013-10-15 14:54:00,
2013-10-15 10:59:00,58.6,56.3,29.71,NNE,22,0.0,0.0,92,0.00,,,0.00,VWS V14.01,2013-10-15 14:59:00,
2013-10-15 11:04:00,58.5,55.5,29.71,North,0,0.0,0.0,90,0.00,,,0.00,VWS V14.01,2013-10-15 15:04:00,
2013-10-15 11:10:00,58.6,56.0,29.71,NNE,22,2.5,2.5,91,0.00,,,0.00,VWS V14.01,2013-10-15 15:10:00,
2013-10-15 11:15:00,58.8,55.9,29.71,West,270,2.7,2.7,90,0.00,,,0.00,VWS V14.01,2013-10-15 15:15:00,
2013-10-15 11:20:00,59.0,55.5,29.71,West,270,2.7,2.7,88,0.00,,,0.00,VWS V14.01,2013-10-15 15:20:00,
2013-10-15 11:25:00,59.4,55.8,29.71,WNW,292,1.6,1.6,88,0.00,,,0.00,VWS V14.01,2013-10-15 15:25:00,
2013-10-15 11:30:00,59.5,55.7,29.71,SW,225,0.9,0.9,87,0.00,,,0.00,VWS V14.01,2013-10-15 15:30:00,
2013-10-15 11:35:00,59.7,55.8,29.71,North,0,1.3,1.3,87,0.00,,,0.00,VWS V14.01,2013-10-15 15:35:00,
2013-10-15 11:40:00,59.9,55.7,29.71,West,270,2.0,2.0,86,0.00,,,0.00,VWS V14.01,2013-10-15 15:40:00,
2013-10-15 11:45:00,60.1,55.9,29.68,NNE,22,2.0,2.0,86,0.00,,,0.00,VWS V14.01,2013-10-15 15:45:00,
2013-10-15 11:50:00,60.4,56.2,29.68,NE,45,2.9,2.9,86,0.00,,,0.00,VWS V14.01,2013-10-15 15:50:00,
2013-10-15 11:55:00,60.6,56.4,29.68,NNW,338,0.0,0.0,86,0.00,,,0.00,VWS V14.01,2013-10-15 15:55:00,
2013-10-15 12:00:00,60.8,55.9,29.68,WNW,292,3.1,3.1,84,0.00,,,0.00,VWS V14.01,2013-10-15 16:00:00,
2013-10-15 12:05:00,61.3,56.5,29.68,NNW,338,2.7,2.7,84,0.00,,,0.00,VWS V14.01,2013-10-15 16:05:00,
2013-10-15 12:11:00,61.5,56.3,29.68,West,270,4.0,4.0,83,0.00,,,0.00,VWS V14.01,2013-10-15 16:11:00,
2013-10-15 12:16:00,61.9,56.7,29.65,WSW,248,1.1,1.1,83,0.00,,,0.00,VWS V14.01,2013-10-15 16:16:00,
2013-10-15 12:21:00,62.1,56.5,29.65,SSW,202,0.0,0.0,82,0.00,,,0.00,VWS V14.01,2013-10-15 16:21:00,
2013-10-15 12:26:00,62.2,56.7,29.65,NNE,22,0.0,0.0,82,0.00,,,0.00,VWS V14.01,2013-10-15 16:26:00,
2013-10-15 12:31:00,62.2,56.3,29.68,South,180,1.3,1.3,81,0.00,,,0.00,VWS V14.01,2013-10-15 16:31:00,
2013-10-15 12:36:00,62.6,56.3,29.68,NNW,338,2.9,2.9,80,0.00,,,0.00,VWS V14.01,2013-10-15 16:36:00,
2013-10-15 12:41:00,63.0,56.3,29.68,South,180,3.4,3.4,79,0.00,,,0.00,VWS V14.01,2013-10-15 16:41:00,
2013-10-15 12:46:00,63.0,55.7,29.68,NE,45,2.7,2.7,77,0.00,,,0.00,VWS V14.01,2013-10-15 16:46:00,
2013-10-15 12:51:00,63.9,56.2,29.68,South,180,3.1,3.1,76,0.00,,,0.00,VWS V14.01,2013-10-15 16:51:00,
2013-10-15 12:56:00,64.0,56.0,29.68,SSW,202,4.0,4.0,75,0.00,,,0.00,VWS V14.01,2013-10-15 16:56:00,
2013-10-15 13:01:00,64.6,55.7,29.62,West,270,5.8,5.8,73,0.00,,,0.00,VWS V14.01,2013-10-15 17:01:00,
2013-10-15 13:06:00,65.1,55.9,29.62,West,270,3.1,3.1,72,0.00,,,0.00,VWS V14.01,2013-10-15 17:06:00,
2013-10-15 13:11:00,65.7,54.8,29.62,SSE,158,1.6,1.6,68,0.00,,,0.00,VWS V14.01,2013-10-15 17:11:00,
2013-10-15 13:16:00,65.7,54.8,29.62,SSW,202,4.0,4.0,68,0.00,,,0.00,VWS V14.01,2013-10-15 17:16:00,
2013-10-15 13:21:00,66.0,55.2,29.62,West,270,1.3,1.3,68,0.00,,,0.00,VWS V14.01,2013-10-15 17:21:00,
2013-10-15 13:26:00,66.4,53.8,29.62,South,180,6.0,6.0,64,0.00,,,0.00,VWS V14.01,2013-10-15 17:26:00,
2013-10-15 13:31:00,66.6,53.6,29.62,South,180,7.8,7.8,63,0.00,,,0.00,VWS V14.01,2013-10-15 17:31:00,
2013-10-15 13:36:00,66.9,53.0,29.62,SSE,158,6.5,6.5,61,0.00,,,0.00,VWS V14.01,2013-10-15 17:36:00,
2013-10-15 13:41:00,66.9,53.0,29.62,SSE,158,4.3,4.3,61,0.00,,,0.00,VWS V14.01,2013-10-15 17:41:00,
2013-10-15 13:46:00,66.9,52.6,29.62,SE,135,3.6,3.6,60,0.00,,,0.00,VWS V14.01,2013-10-15 17:46:00,
2013-10-15 13:51:00,66.9,52.6,29.62,West,270,4.0,4.0,60,0.00,,,0.00,VWS V14.01,2013-10-15 17:51:00,
2013-10-15 13:56:00,67.1,52.8,29.62,WSW,248,2.7,2.7,60,0.00,,,0.00,VWS V14.01,2013-10-15 17:56:00,
2013-10-15 14:02:00,67.5,53.1,29.59,SSW,202,3.6,3.6,60,0.00,,,0.00,VWS V14.01,2013-10-15 18:02:00,
2013-10-15 14:07:00,67.6,52.3,29.59,SSW,202,6.5,6.5,58,0.00,,,0.00,VWS V14.01,2013-10-15 18:07:00,
2013-10-15 14:12:00,68.2,52.9,29.59,SSW,202,5.4,5.4,58,0.00,,,0.00,VWS V14.01,2013-10-15 18:12:00,
2013-10-15 14:17:00,68.4,52.5,29.59,WSW,248,3.6,3.6,57,0.00,,,0.00,VWS V14.01,2013-10-15 18:17:00,
2013-10-15 14:22:00,68.4,52.5,29.59,SE,135,3.1,3.1,57,0.00,,,0.00,VWS V14.01,2013-10-15 18:22:00,
2013-10-15 14:27:00,68.2,52.9,29.59,SW,225,3.8,3.8,58,0.00,,,0.00,VWS V14.01,2013-10-15 18:27:00,
2013-10-15 14:32:00,68.4,52.5,29.59,SW,225,4.3,4.3,57,0.00,,,0.00,VWS V14.01,2013-10-15 18:32:00,
2013-10-15 14:37:00,68.7,52.4,29.59,SSW,202,2.9,2.9,56,0.00,,,0.00,VWS V14.01,2013-10-15 18:37:00,
2013-10-15 14:42:00,68.7,52.9,29.59,West,270,0.0,0.0,57,0.00,,,0.00,VWS V14.01,2013-10-15 18:42:00,
2013-10-15 14:47:00,68.9,52.1,29.59,SE,135,2.5,2.5,55,0.00,,,0.00,VWS V14.01,2013-10-15 18:47:00,
2013-10-15 14:52:00,68.7,52.9,29.59,SSW,202,7.6,7.6,57,0.00,,,0.00,VWS V14.01,2013-10-15 18:52:00,
2013-10-15 14:57:00,69.1,52.2,29.59,SSW,202,2.7,2.7,55,0.00,,,0.00,VWS V14.01,2013-10-15 18:57:00,
2013-10-15 15:02:00,69.4,52.6,29.59,SSW,202,2.9,2.9,55,0.00,,,0.00,VWS V14.01,2013-10-15 19:02:00,
2013-10-15 15:07:00,69.6,52.3,29.59,SSE,158,2.5,2.5,54,0.00,,,0.00,VWS V14.01,2013-10-15 19:07:00,
2013-10-15 15:12:00,69.6,52.8,29.56,South,180,6.5,6.5,55,0.00,,,0.00,VWS V14.01,2013-10-15 19:12:00,
2013-10-15 15:17:00,69.8,51.9,29.56,WSW,248,3.4,3.4,53,0.00,,,0.00,VWS V14.01,2013-10-15 19:17:00,
2013-10-15 15:22:00,69.8,51.4,29.56,WSW,248,1.6,1.6,52,0.00,,,0.00,VWS V14.01,2013-10-15 19:22:00,
2013-10-15 15:27:00,69.6,52.3,29.56,SSW,202,5.8,5.8,54,0.00,,,0.00,VWS V14.01,2013-10-15 19:27:00,
2013-10-15 15:32:00,69.8,51.9,29.56,SSW,202,2.5,2.5,53,0.00,,,0.00,VWS V14.01,2013-10-15 19:32:00,
2013-10-15 15:37:00,70.0,51.6,29.56,WNW,292,2.9,2.9,52,0.00,,,0.00,VWS V14.01,2013-10-15 19:37:00,
2013-10-15 15:43:00,70.2,50.7,29.56,WSW,248,3.4,3.4,50,0.00,,,0.00,VWS V14.01,2013-10-15 19:43:00,
2013-10-15 15:48:00,70.2,51.2,29.56,West,270,0.0,0.0,51,0.00,,,0.00,VWS V14.01,2013-10-15 19:48:00,
2013-10-15 15:53:00,69.8,51.9,29.56,West,270,1.1,1.1,53,0.00,,,0.00,VWS V14.01,2013-10-15 19:53:00,
2013-10-15 15:58:00,70.2,50.7,29.56,SSW,202,7.8,7.8,50,0.00,,,0.00,VWS V14.01,2013-10-15 19:58:00,
2013-10-15 16:03:00,70.2,51.2,29.56,South,180,3.6,3.6,51,0.00,,,0.00,VWS V14.01,2013-10-15 20:03:00,
2013-10-15 16:08:00,70.0,51.0,29.56,SSE,158,2.7,2.7,51,0.00,,,0.00,VWS V14.01,2013-10-15 20:08:00,
2013-10-15 16:13:00,69.8,50.9,29.53,South,180,4.0,4.0,51,0.00,,,0.00,VWS V14.01,2013-10-15 20:13:00,
2013-10-15 16:18:00,69.6,50.7,29.53,SSW,202,3.4,3.4,51,0.00,,,0.00,VWS V14.01,2013-10-15 20:18:00,
2013-10-15 16:23:00,69.4,50.5,29.53,ESE,112,0.0,0.0,51,0.00,,,0.00,VWS V14.01,2013-10-15 20:23:00,
2013-10-15 16:28:00,69.3,49.8,29.56,SSW,202,3.4,3.4,50,0.00,,,0.00,VWS V14.01,2013-10-15 20:28:00,
2013-10-15 16:33:00,69.3,50.4,29.56,WSW,248,2.7,2.7,51,0.00,,,0.00,VWS V14.01,2013-10-15 20:33:00,
2013-10-15 16:38:00,69.4,50.5,29.56,SW,225,4.0,4.0,51,0.00,,,0.00,VWS V14.01,2013-10-15 20:38:00,
2013-10-15 16:43:00,69.4,50.0,29.56,SSW,202,3.1,3.1,50,0.00,,,0.00,VWS V14.01,2013-10-15 20:43:00,
2013-10-15 16:48:00,69.4,48.9,29.56,SSW,202,2.9,2.9,48,0.00,,,0.00,VWS V14.01,2013-10-15 20:48:00,
2013-10-15 16:53:00,69.3,49.3,29.56,South,180,3.4,3.4,49,0.00,,,0.00,VWS V14.01,2013-10-15 20:53:00,
2013-10-15 16:58:00,69.1,49.1,29.56,South,180,4.5,4.5,49,0.00,,,0.00,VWS V14.01,2013-10-15 20:58:00,
2013-10-15 17:03:00,68.9,49.5,29.56,SSW,202,4.7,4.7,50,0.00,,,0.00,VWS V14.01,2013-10-15 21:03:00,
2013-10-15 17:08:00,68.5,49.2,29.56,SSW,202,2.0,2.0,50,0.00,,,0.00,VWS V14.01,2013-10-15 21:08:00,
2013-10-15 17:13:00,68.4,49.0,29.56,WSW,248,0.9,0.9,50,0.00,,,0.00,VWS V14.01,2013-10-15 21:13:00,
2013-10-15 17:18:00,68.2,48.8,29.56,SSW,202,3.1,3.1,50,0.00,,,0.00,VWS V14.01,2013-10-15 21:18:00,
2013-10-15 17:23:00,68.2,48.8,29.56,SSW,202,0.0,0.0,50,0.00,,,0.00,VWS V14.01,2013-10-15 21:23:00,
2013-10-15 17:29:00,68.0,49.7,29.56,SSW,202,2.0,2.0,52,0.00,,,0.00,VWS V14.01,2013-10-15 21:29:00,
2013-10-15 17:34:00,67.8,50.1,29.56,WSW,248,2.9,2.9,53,0.00,,,0.00,VWS V14.01,2013-10-15 21:34:00,
2013-10-15 17:39:00,67.5,49.8,29.56,SSW,202,2.2,2.2,53,0.00,,,0.00,VWS V14.01,2013-10-15 21:39:00,
2013-10-15 17:44:00,67.1,49.9,29.53,WSW,248,0.9,0.9,54,0.00,,,0.00,VWS V14.01,2013-10-15 21:44:00,
2013-10-15 17:49:00,66.9,50.2,29.53,West,270,0.0,0.0,55,0.00,,,0.00,VWS V14.01,2013-10-15 21:49:00,
2013-10-15 17:54:00,66.6,49.4,29.53,WSW,248,1.6,1.6,54,0.00,,,0.00,VWS V14.01,2013-10-15 21:54:00,
2013-10-15 17:59:00,66.4,49.7,29.56,WSW,248,0.0,0.0,55,0.00,,,0.00,VWS V14.01,2013-10-15 21:59:00,
2013-10-15 18:04:00,66.2,50.1,29.56,WSW,248,0.0,0.0,56,0.00,,,0.00,VWS V14.01,2013-10-15 22:04:00,
2013-10-15 18:09:00,65.8,50.7,29.56,South,180,2.0,2.0,58,0.00,,,0.00,VWS V14.01,2013-10-15 22:09:00,
2013-10-15 18:14:00,65.7,51.0,29.56,South,180,1.6,1.6,59,0.00,,,0.00,VWS V14.01,2013-10-15 22:14:00,
2013-10-15 18:19:00,65.3,50.2,29.56,South,180,1.1,1.1,58,0.00,,,0.00,VWS V14.01,2013-10-15 22:19:00,
2013-10-15 18:24:00,65.1,49.5,29.56,South,180,1.1,1.1,57,0.00,,,0.00,VWS V14.01,2013-10-15 22:24:00,
2013-10-15 18:30:00,64.8,50.1,29.56,SSW,202,2.0,2.0,59,0.00,,,0.00,VWS V14.01,2013-10-15 22:30:00,
2013-10-15 18:35:00,64.6,50.0,29.56,SSW,202,1.6,1.6,59,0.00,,,0.00,VWS V14.01,2013-10-15 22:35:00,
2013-10-15 18:40:00,64.2,50.1,29.56,SSW,202,2.0,2.0,60,0.00,,,0.00,VWS V14.01,2013-10-15 22:40:00,
2013-10-15 18:45:00,63.9,49.7,29.56,SSW,202,1.3,1.3,60,0.00,,,0.00,VWS V14.01,2013-10-15 22:45:00,
2013-10-15 18:50:00,63.7,50.0,29.56,South,180,2.0,2.0,61,0.00,,,0.00,VWS V14.01,2013-10-15 22:50:00,
2013-10-15 18:55:00,63.3,50.1,29.56,South,180,1.6,1.6,62,0.00,,,0.00,VWS V14.01,2013-10-15 22:55:00,
2013-10-15 19:00:00,63.1,50.3,29.56,South,180,1.6,1.6,63,0.00,,,0.00,VWS V14.01,2013-10-15 23:00:00,
2013-10-15 19:05:00,63.1,49.5,29.56,SSW,202,2.0,2.0,61,0.00,,,0.00,VWS V14.01,2013-10-15 23:05:00,
2013-10-15 19:10:00,63.1,49.0,29.56,SSW,202,2.5,2.5,60,0.00,,,0.00,VWS V14.01,2013-10-15 23:10:00,
2013-10-15 19:15:00,63.1,49.0,29.56,South,180,3.4,3.4,60,0.00,,,0.00,VWS V14.01,2013-10-15 23:15:00,
2013-10-15 19:20:00,63.0,49.3,29.56,SSW,202,1.3,1.3,61,0.00,,,0.00,VWS V14.01,2013-10-15 23:20:00,
2013-10-15 19:25:00,62.8,49.6,29.56,South,180,1.6,1.6,62,0.00,,,0.00,VWS V14.01,2013-10-15 23:25:00,
2013-10-15 19:31:00,62.6,49.4,29.56,SSW,202,1.6,1.6,62,0.00,,,0.00,VWS V14.01,2013-10-15 23:31:00,
2013-10-15 19:36:00,62.4,49.2,29.56,South,180,1.3,1.3,62,0.00,,,0.00,VWS V14.01,2013-10-15 23:36:00,
2013-10-15 19:41:00,62.2,49.5,29.56,SSW,202,2.0,2.0,63,0.00,,,0.00,VWS V14.01,2013-10-15 23:41:00,
2013-10-15 19:46:00,62.2,49.5,29.56,South,180,1.3,1.3,63,0.00,,,0.00,VWS V14.01,2013-10-15 23:46:00,
2013-10-15 19:51:00,62.1,49.3,29.56,SSE,158,0.0,0.0,63,0.00,,,0.00,VWS V14.01,2013-10-15 23:51:00,
2013-10-15 19:56:00,62.1,49.3,29.56,South,180,2.2,2.2,63,0.00,,,0.00,VWS V14.01,2013-10-15 23:56:00,
2013-10-15 20:01:00,61.9,49.2,29.56,South,180,2.2,2.2,63,0.00,,,0.00,VWS V14.01,2013-10-16 00:01:00,
2013-10-15 20:06:00,61.9,49.6,29.56,SSW,202,2.0,2.0,64,0.00,,,0.00,VWS V14.01,2013-10-16 00:06:00,
2013-10-15 20:11:00,61.9,49.6,29.56,SW,225,1.6,1.6,64,0.00,,,0.00,VWS V14.01,2013-10-16 00:11:00,
2013-10-15 20:16:00,61.7,48.6,29.56,SSW,202,2.2,2.2,62,0.00,,,0.00,VWS V14.01,2013-10-16 00:16:00,
2013-10-15 20:21:00,61.5,49.2,29.56,South,180,1.6,1.6,64,0.00,,,0.00,VWS V14.01,2013-10-16 00:21:00,
2013-10-15 20:27:00,61.3,49.1,29.56,South,180,1.1,1.1,64,0.00,,,0.00,VWS V14.01,2013-10-16 00:27:00,
2013-10-15 20:32:00,61.2,48.5,29.56,South,180,0.0,0.0,63,0.00,,,0.00,VWS V14.01,2013-10-16 00:32:00,
2013-10-15 20:37:00,61.0,48.7,29.56,SSW,202,1.3,1.3,64,0.00,,,0.00,VWS V14.01,2013-10-16 00:37:00,
2013-10-15 20:42:00,60.6,48.4,29.56,SSW,202,1.6,1.6,64,0.00,,,0.00,VWS V14.01,2013-10-16 00:42:00,
2013-10-15 20:47:00,60.4,48.2,29.56,SSW,202,2.2,2.2,64,0.00,,,0.00,VWS V14.01,2013-10-16 00:47:00,
2013-10-15 20:52:00,60.4,48.2,29.56,SSW,202,1.3,1.3,64,0.00,,,0.00,VWS V14.01,2013-10-16 00:52:00,
2013-10-15 20:57:00,60.4,48.2,29.59,SSW,202,1.6,1.6,64,0.00,,,0.00,VWS V14.01,2013-10-16 00:57:00,
2013-10-15 21:02:00,60.4,49.0,29.59,SSW,202,1.6,1.6,66,0.00,,,0.00,VWS V14.01,2013-10-16 01:02:00,
2013-10-15 21:07:00,60.4,48.2,29.59,SW,225,2.0,2.0,64,0.00,,,0.00,VWS V14.01,2013-10-16 01:07:00,
2013-10-15 21:12:00,60.4,48.6,29.56,South,180,0.9,0.9,65,0.00,,,0.00,VWS V14.01,2013-10-16 01:12:00,
2013-10-15 21:17:00,60.3,48.5,29.56,SE,135,1.6,1.6,65,0.00,,,0.00,VWS V14.01,2013-10-16 01:17:00,
2013-10-15 21:22:00,60.1,48.3,29.56,SE,135,3.1,3.1,65,0.00,,,0.00,VWS V14.01,2013-10-16 01:22:00,
2013-10-15 21:27:00,60.1,48.3,29.59,SE,135,0.0,0.0,65,0.00,,,0.00,VWS V14.01,2013-10-16 01:27:00,
2013-10-15 21:32:00,60.3,48.5,29.59,SE,135,0.0,0.0,65,0.00,,,0.00,VWS V14.01,2013-10-16 01:32:00,
2013-10-15 21:37:00,60.4,47.8,29.59,SE,135,0.0,0.0,63,0.00,,,0.00,VWS V14.01,2013-10-16 01:37:00,
2013-10-15 21:43:00,60.3,48.0,29.56,WSW,248,1.6,1.6,64,0.00,,,0.00,VWS V14.01,2013-10-16 01:43:00,
2013-10-15 21:48:00,60.1,47.9,29.56,WSW,248,2.2,2.2,64,0.00,,,0.00,VWS V14.01,2013-10-16 01:48:00,
2013-10-15 21:53:00,59.7,48.0,29.56,SSW,202,1.3,1.3,65,0.00,,,0.00,VWS V14.01,2013-10-16 01:53:00,
2013-10-15 21:58:00,59.5,47.4,29.56,SW,225,0.0,0.0,64,0.00,,,0.00,VWS V14.01,2013-10-16 01:58:00,
2013-10-15 22:03:00,59.5,47.8,29.56,SSW,202,1.6,1.6,65,0.00,,,0.00,VWS V14.01,2013-10-16 02:03:00,
2013-10-15 22:08:00,59.4,47.6,29.56,SW,225,0.0,0.0,65,0.00,,,0.00,VWS V14.01,2013-10-16 02:08:00,
2013-10-15 22:13:00,59.4,48.0,29.56,SSW,202,0.0,0.0,66,0.00,,,0.00,VWS V14.01,2013-10-16 02:13:00,
2013-10-15 22:18:00,59.4,48.0,29.56,SW,225,0.0,0.0,66,0.00,,,0.00,VWS V14.01,2013-10-16 02:18:00,
2013-10-15 22:23:00,59.4,48.0,29.56,WSW,248,0.0,0.0,66,0.00,,,0.00,VWS V14.01,2013-10-16 02:23:00,
2013-10-15 22:28:00,59.2,47.8,29.56,SSW,202,2.0,2.0,66,0.00,,,0.00,VWS V14.01,2013-10-16 02:28:00,
2013-10-15 22:33:00,59.0,48.1,29.56,WSW,248,1.3,1.3,67,0.00,,,0.00,VWS V14.01,2013-10-16 02:33:00,
2013-10-15 22:38:00,58.8,47.9,29.56,SSW,202,2.5,2.5,67,0.00,,,0.00,VWS V14.01,2013-10-16 02:38:00,
2013-10-15 22:43:00,58.6,47.7,29.56,SSW,202,2.0,2.0,67,0.00,,,0.00,VWS V14.01,2013-10-16 02:43:00,
2013-10-15 22:48:00,58.8,47.5,29.56,SSW,202,1.6,1.6,66,0.00,,,0.00,VWS V14.01,2013-10-16 02:48:00,
2013-10-15 22:53:00,58.5,47.6,29.56,SSW,202,1.6,1.6,67,0.00,,,0.00,VWS V14.01,2013-10-16 02:53:00,
2013-10-15 22:58:00,58.5,47.6,29.56,SSW,202,1.6,1.6,67,0.00,,,0.00,VWS V14.01,2013-10-16 02:58:00,
2013-10-15 23:04:00,58.3,47.4,29.56,South,180,1.3,1.3,67,0.00,,,0.00,VWS V14.01,2013-10-16 03:04:00,
2013-10-15 23:09:00,58.3,47.8,29.56,SSE,158,0.0,0.0,68,0.00,,,0.00,VWS V14.01,2013-10-16 03:09:00,
2013-10-15 23:14:00,58.5,48.0,29.56,SSE,158,0.0,0.0,68,0.00,,,0.00,VWS V14.01,2013-10-16 03:14:00,
2013-10-15 23:19:00,58.3,47.4,29.56,South,180,1.6,1.6,67,0.00,,,0.00,VWS V14.01,2013-10-16 03:19:00,
2013-10-15 23:24:00,58.3,47.4,29.56,South,180,1.1,1.1,67,0.00,,,0.00,VWS V14.01,2013-10-16 03:24:00,
2013-10-15 23:29:00,58.3,47.4,29.56,SSW,202,1.1,1.1,67,0.00,,,0.00,VWS V14.01,2013-10-16 03:29:00,
2013-10-15 23:34:00,58.3,47.8,29.56,SE,135,2.5,2.5,68,0.00,,,0.00,VWS V14.01,2013-10-16 03:34:00,
2013-10-15 23:39:00,58.3,47.8,29.56,South,180,1.1,1.1,68,0.00,,,0.00,VWS V14.01,2013-10-16 03:39:00,
2013-10-15 23:44:00,58.3,47.8,29.56,SSW,202,4.0,4.0,68,0.00,,,0.00,VWS V14.01,2013-10-16 03:44:00,
2013-10-15 23:49:00,58.5,47.6,29.56,SSW,202,2.5,2.5,67,0.00,,,0.00,VWS V14.01,2013-10-16 03:49:00,
2013-10-15 23:55:00,58.6,47.3,29.56,SSW,202,3.1,3.1,66,0.00,,,0.00,VWS V14.01,2013-10-16 03:55:00,